User: anonymous   Login
Location: Austin
(30.3000°N, 97.7500°W)
Time: 21:07:20
(UTC-05:00)
Language:

Hubble Space Telescope - Orbit

View from above orbital plane
View from above orbital plane
View from above satellite
View from above satellite

Ground track
Ground track

The orbit data is extracted from the following two-line orbital elements,

1 20580U 90037B   24147.35298597  .00005510  00000-0  25819-3 0  9999
2 20580  28.4669 131.3868 0002699 155.3883 204.6839 15.17472986673717
Epoch (UTC): 26 May 2024 08:28:17
Eccentricity: 0.0002699
inclination: 28.4669°
perigee height: 511 km
apogee height: 515 km
right ascension of ascending node: 131.3868°
argument of perigee: 155.3883°
revolutions per day: 15.17472986
mean anomaly at epoch: 204.6839°
orbit number at epoch: 67371

The dashed part of the orbit path shows where the satellite is in the earth's shadow,  

DLR